Погода в Троицкой Слободе

Россия / Ярославская область     56°45′43″N   38°52′25″E
темп.,
°C
ветер,
м/с
пор.,
м/с
влажн.,
%
обл.,
%
осадки,
мм/ч
давл.,
гПа
погр.,
м
25 февраля, чт
чт2500:00−13ююз4995100 0.4 1026388
03:00−12ююз5995100 2.1 1022326
06:00−10ююз51395100 3.4 1015466
09:00−1зюз41196100 4.8 1011428
12:00+2зсз513100100 0.3 1010512
15:00+2зсз513100100 0.3 1011535
18:00+1зсз41099100 0.0 1012403
21:00+1зсз41198100 0.0 1012460
26 февраля, пт
пт2600:00+1зюз3699100 0.0 1011171
03:00+1зюз38100100 1.0 1010236
06:00+1зюз39100100 1.2 1007266
09:00+2зюз51299100 1.9 1004345
12:00+2зюз513100100 0.3 1001426
15:00+2з61599100 2.4 999767
18:00+1з6148890 0.1 998965
21:00+1з8149796 0.6 9981036
27 февраля, сб
сб2700:00+1зсз71597100 0.8 9971081
03:00+1зсз71397100 1.1 998996
06:00−5ссз61394100 1.4 998744
09:00−10ссз51090100 1.9 1001621
12:00−9ссз5889100 0.1 1004615
15:00−8ссз5889100 0.1 1007604
18:00−10ссз4993100 0.1 1009396
21:00−12ссз389599 0.1 1012312
28 февраля, вс
вс2800:00−13ссз359792 0.0 1014145
03:00−14сз359672 0.1 1016133
06:00−13ссз369676 0.1 1016222
09:00−11ссз369482 0.3 1018324
12:00−7ссз369195 0.1 1019530
15:00−4ссз478998 0.2 1020743
18:00−5ссз3893100 0.1 1021470
21:00−5ссз2795100 0.2 1023358
1 марта, пн
пн100:00−6зсз129794 0.1 102474
03:00−8з239797 0.1 102432
06:00−8з369864 0.0 1023116
09:00−6зюз479670 0.1 1022256
12:00−2з5996100 0.1 1021466
15:000з51193100 0.1 1018871
18:00+1з61392100 0.1 1015733
21:00+1з61496100 0.1 1013763